STARLINK-32577, 62044

Orbit data source: Space-Track

STARLINK-32577, 62044 is a payload satellite owned by SpaceX/Seattle (US) in LEO that was launched on Thu, 21 Nov 2024 UTC via an FALCON 9 launch vehicle from the Air Force Eastern Test Range (AFETR). Payload-class satellites include a variety of spacecraft equipped with specific instruments for various scientific and technological missions. These include communications satellites like Starlink; space stations such as the ISS; scientific satellites like the Hubble; Earth observation satellites from companies like Planet Labs, Umbra, and HawkEye 360; GPS; miniature CubeSats for education and research; and military/defense satellites.

Loading next visibility...
Identifier
62044, 2024-216N
Orbit
LEO
Last TLE update
9 hours ago
Origin
Manufacturer
SpaceX/Seattle
Mission
Operational Commercial Communications
Bus & Motor
STARLINK V2M, Unknown motor
Mass
730 kg wet, ~700 kg dry
Launch date (UTC)
2024-11-21 (8 months ago)
Launch vehicle
FALCON 9
Launch site
Air Force Eastern Test Range (AFETR)
Object type
Payload
Rocket body
Debris
Shape & HBR
Box + 2 Pan, 29 m
Radar Cross Section
36.964 m², Large (>1 m²)

Expand to show TLE details & history

TLE from 9 hours ago
0 STARLINK-32577
1 62044U 24216N   25192.02129928  .00028352  00000-0  10355-2 0  9999
2 62044  42.9982 188.2246 0001129 276.3997  83.6727 15.27591628 36850
Epoch: 2025-07-11T00:30Z
TLE epoch observation values (Epoch: 2025-07-11T00:30:40.257Z)
Latitude
0.00003°
Longitude
-108.62231°
Altitude
482.704 km
Speed
7.626 km/s
True Right ascension
12h 32m 53s
True Declination
0° 00' 00"
Sunlit
Object was in daylight at epoch
Visualization orbit readout
Latitude
-29.44835°
Longitude
106.32187°
Altitude
490.29 km
Speed
7.621 km/s
Apparent Right ascension
05h 47m 37s
Apparent Declination
-46° 55' 20"
Sunlit
Object is in daylight
Visualization observer readout
Local Sidereal Time
21:38:10
Azimuth
119.444° SE
Elevation
-48.509°
Doppler factor
1
Orbital elements
Apogee altitude
485.735 km
Perigee altitude
484.185 km
Semi-major axis
6,863.097 km
Eccentricity
0.00011
Inclination
42.9982°
RAAN
188.2246°
Arg. of periapsis
276.3997°
True anomaly
Unknown
Mean anomaly
83.6727°
Eccentric anomaly
Unknown
Mean motion
3.81736 °/min
Orbital period
94.31 mins
BSTAR
0.0010355
Loading maneuver chart data...
Loading SW <> Apogee altitude chart data...
Loading historical data...
Loading historical data...
Loading historical data...
Loading historical data...
Loading historical data...
Loading historical data...
Loading historical data...

STARLINK-32577 Visibility forecast

Observer location: undefined°, undefined°

Span
Click to sort rows by Start time (UTC) header in descending order
Start Az.
Max El. time (UTC)
Max El. Az.
Max El.
End time (UTC)
End Az.
6 mins2025-07-12 03:25:29.192Z232.416° WSW2025-07-12 03:28:29.192Z118.819° SE39.409°2025-07-12 03:31:29.192Z76.205° E
6 mins2025-07-12 05:04:29.192Z279.043° WNW2025-07-12 05:07:29.192Z23.841° NE37.888°2025-07-12 05:10:29.192Z71.648° E
5 mins2025-07-12 06:44:29.192Z298.332° NW2025-07-12 06:46:29.192Z34.032° NE41.229°2025-07-12 06:49:29.192Z92.182° ESE
5 mins2025-07-12 08:23:29.192Z263.109° W2025-07-12 08:25:29.192Z191.315° SSW33.473°2025-07-12 08:28:29.192Z137.142° SSE
|